Tracking 31027 objects as of 19-Jul-2025
HD Live streaming from Space Station
objects crossing your sky now

RADUGA 1-4

Track RADUGA 1-4 now!
RADUGA 1-4 is classified as:


NORAD ID: 25642
Int'l Code: 1999-010A
Perigee: 35,750.3 km
Apogee: 35,790.0 km
Inclination: 15.6 °
Period: 1,434.9 minutes
Semi major axis: 42141 km
RCS: 12.5893 m2 (large)
Launch date: February 28, 1999
Source: Commonwealth of Independent States (former USSR) (CIS)
Launch site: TYURATAM MISSILE AND SPACE COMPLEX (TTMTR)

Military communication.
Your satellite tracking list
STARLINK-1749
Track 1 satellite(s)




NASA's NSSDC Master Catalog

Two Line Element Set (TLE):
1 25642U 99010A   25199.00093072 -.00000149  00000-0  00000-0 0  9990
2 25642  15.5507   4.4112 0004709 249.6491 119.2072  1.00355919 96607
Source of the keplerian elements: AFSPC